ATLAS CENTAUR 2 DEB, 701

Orbit data source: Space-Track

ATLAS CENTAUR 2 DEB, 701 is space debris in LEO originally from a launch on Wed, 27 Nov 1963 UTC launched from the Air Force Eastern Test Range (AFETR). Debris objects in space refer to the collection of defunct objects orbiting the Earth. Examples of debris include non-operational satellites, rocket bodies, and fragments generated from explosions, collisions, or faulty payload assembly.

Loading next visibility...
Identifier
701, 1963-047G
Orbit
LEO
Last TLE update
1 day ago
Origin
Manufacturer
GD/Convair
Mission
Spacecraft
Bus & Motor
CENTAUR PART, Unknown motor
Mass
Unknown
Launch date (UTC)
1963-11-27 (61 years ago)
Launch vehicle
Unknown
Launch site
Air Force Eastern Test Range (AFETR)
Object type
Payload
Rocket body
Debris
Shape & HBR
Unknown
Radar Cross Section
0.560 m², Medium (>0.1 m² and < 1m²)

Expand to show TLE details & history

TLE from 1 day ago
0 ATLAS CENTAUR 2 DEB
1 00701U 63047G   25128.20317362  .00001246  00000-0  39422-3 0  9996
2 00701  30.0081 103.9350 0508631  87.4900 278.3789 13.82219943 54122
Epoch: 2025-05-08T04:52Z
Definitive object data (Epoch: 2025-05-08T04:52:34.2Z)
Latitude
-0.00004°
Longitude
164.51539°
Altitude
918.918 km
Speed
7.413 km/s
True Right ascension
06h 55m 44s
True Declination
0° 00' 00"
Sunlit
Object was in daylight at TLE epoch
Visualization TLE readout
Latitude
-26.49752°
Longitude
99.61592°
Altitude
1,307.612 km
Speed
7.032 km/s
Apparent Right ascension
02h 38m 42s
Apparent Declination
-32° 25' 28"
Sunlit
Object is in daylight
Visualization observer readout
Local Sidereal Time
14:42:17
Azimuth
5.801° NNE
Elevation
-82.473°
Doppler factor
1
Orbital elements
Apogee altitude
1,333.026 km
Perigee altitude
586.566 km
Semi-major axis
7,337.933 km
Eccentricity
0.0508631
Inclination
30.0081°
RAAN
103.935°
Arg. of periapsis
87.49°
True anomaly
272.56871°
Mean anomaly
278.3789°
Eccentric anomaly
275.47797°
Mean motion
3.45289 °/min
BSTAR
0.00039422
Orbital period
104.26 mins
Loading maneuver chart data...
Loading SW <> Apogee altitude chart data...

ATLAS CENTAUR 2 DEB Visibility forecast

Observer location: undefined°, undefined°

Span
Click to sort rows by Start time (UTC) header in descending order
Start Az.
Max El. time (UTC)
Max El. Az.
Max El.
End time (UTC)
End Az.
5 mins2025-05-10 02:13:26.482Z201.815° SSW2025-05-10 02:15:26.482Z173.86° S16.948°2025-05-10 02:18:26.482Z129.249° SE
5 mins2025-05-10 04:03:26.482Z218.698° SW2025-05-10 04:05:26.482Z183.279° SSW20.715°2025-05-10 04:08:26.482Z133.756° SE
|